Location: Piolenc
(44.1794°N, 4.7641°E)
Time: 01:19:38
(UTC+00:00)

Cosmos 2333 Rocket - Pass Details

Date: 27 January 2021
Orbit: 839 x 863 km, 70.8° (Epoch: 27 February)

Event Time Altitude Azimuth Distance (km) Brightness Sun altitude
Exits shadow 04:04:34 16° 6° (N) 2,071 4.3 -32.1°
Drops below altitude 10° 04:05:47 10° 12° (NNE) 2,475 4.8 -31.9°
Sets 04:08:26 0° 21° (NNE) 3,417 5.7 -31.4°
